FW4191 Weather Reports


time (UTC)temp
C
wind
direction
speed
KPH
gust
KPH
rain 1hr
cm
rain 24hr
cm
rain mn
cm
humidity
%
barometer
mb
20260508220418 18 225 0.0 0.0 0.00 0.00 0.00 48 1073.5
20260508215516 18 236 1.6 4.8 0.00 0.00 0.00 49 1073.5
20260508214516 18 225 0.0 1.6 0.00 0.00 0.00 49 1073.5
20260508213515 18 225 0.0 0.0 0.00 0.00 0.00 47 1073.5
20260508212516 18 225 0.0 0.0 0.00 0.00 0.00 45 1073.8
20260508210617 18 189 3.2 4.8 0.00 0.00 0.00 45 1073.9
20260508205618 18 210 3.2 8.0 0.00 0.00 0.00 45 1074.1
20260508205516 18 247 0.0 0.0 0.00 0.00 0.00 46 1074.2
20260508203515 18 225 0.0 1.6 0.00 0.00 0.00 47 1074.6
20260508202516 18 197 1.6 3.2 0.00 0.00 0.00 47 1074.4
20260508201518 18 195 0.0 0.0 0.00 0.00 0.00 47 1074.6
20260508201416 18 211 0.0 1.6 0.00 0.00 0.00 47 1074.6
20260508195418 19 225 0.0 0.0 0.00 0.00 0.00 39 1074.8
20260508193418 21 204 1.6 4.8 0.00 0.00 0.00 39 1074.8
20260508192516 22 214 3.2 6.4 0.00 0.00 0.00 40 1074.9
20260508191516 21 314 1.6 3.2 0.00 0.00 0.00 43 1074.9
20260508191417 21 336 1.6 3.2 0.00 0.00 0.00 42 1074.9
20260508190515 21 210 4.8 12.9 0.00 0.00 0.00 40 1075.1
20260508185517 21 257 1.6 6.4 0.00 0.00 0.00 40 1075.5
20260508184416 21 241 6.4 12.9 0.00 0.00 0.00 40 1075.8
20260508183418 21 22 1.6 6.4 0.00 0.00 0.00 43 1075.7
20260508182515 21 331 0.0 6.4 0.00 0.00 0.00 44 1075.8
20260508174534 18 266 1.6 4.8 0.00 0.05 0.00 44 1076.6
20260508173631 19 283 0.0 1.6 0.00 0.05 0.00 45 1076.8
20260508171733 20 84 0.0 4.8 0.00 0.05 0.00 44 1077.0
20260508171615 20 129 0.0 1.6 0.00 0.05 0.00 44 1077.0
20260508170617 20 194 3.2 9.7 0.00 0.05 0.00 44 1077.2
20260508165716 20 286 0.0 6.4 0.00 0.05 0.00 44 1077.5
20260508164815 20 253 1.6 9.7 0.00 0.05 0.00 45 1077.6
20260508164719 20 314 0.0 3.2 0.00 0.05 0.00 45 1077.7
20260508163817 19 222 0.0 3.2 0.00 0.05 0.00 44 1077.7
20260508163716 19 252 1.6 6.4 0.00 0.05 0.00 45 1077.6
20260508162733 20 231 4.8 12.9 0.00 0.05 0.00 46 1077.8
20260508161815 19 231 1.6 4.8 0.00 0.05 0.00 45 1077.9
20260508160830 19 191 1.6 3.2 0.00 0.05 0.00 45 1078.0
20260508155818 19 277 3.2 6.4 0.00 0.05 0.00 47 1078.3
20260508154816 19 229 1.6 6.4 0.00 0.05 0.00 47 1078.3
20260508152918 18 309 0.0 6.4 0.00 0.05 0.00 49 1078.5
20260508151917 18 266 3.2 6.4 0.00 0.05 0.00 50 1078.5
20260508151015 17 215 1.6 4.8 0.00 0.05 0.00 48 1078.6
20260508150114 17 271 3.2 9.7 0.00 0.05 0.00 48 1078.7
20260508145133 17 253 6.4 12.9 0.00 0.05 0.00 47 1078.6
20260508144214 17 237 1.6 8.0 0.00 0.05 0.00 48 1078.7
20260508143231 16 266 3.2 9.7 0.00 0.05 0.00 51 1078.9
20260508142217 16 258 0.0 4.8 0.00 0.05 0.00 51 1079.0
20260508141217 16 223 6.4 11.3 0.00 0.05 0.00 54 1079.3
20260508141132 16 15 1.6 6.4 0.00 0.05 0.00 54 1079.3
20260508140116 15 204 3.2 8.0 0.00 0.05 0.00 56 1079.2
20260508135116 15 308 0.0 3.2 0.00 0.05 0.00 58 1079.3
20260508134117 14 157 0.0 1.6 0.00 0.05 0.00 62 1079.3
20260508133215 13 210 3.2 4.8 0.00 0.05 0.00 65 1079.3
20260508131218 13 234 3.2 6.4 0.00 0.05 0.00 71 1079.4
20260508130316 12 273 1.6 4.8 0.00 0.05 0.00 77 1079.2
20260508125315 11 201 1.6 3.2 0.00 0.05 0.00 83 1079.3
20260508124315 10 222 3.2 4.8 0.00 0.05 0.00 91 1079.3
20260508124232 10 166 0.0 1.6 0.00 0.05 0.00 90 1079.3
20260508123216 9 180 0.0 1.6 0.00 0.05 0.00 93 1079.3
20260508123116 9 180 0.0 0.0 0.00 0.05 0.00 93 1079.3
20260508122117 8 168 0.0 1.6 0.00 0.05 0.00 94 1079.1
20260508122016 8 180 0.0 0.0 0.00 0.05 0.00 94 1079.2
20260508121917 8 194 0.0 0.0 0.00 0.05 0.00 94 1079.2
20260508121015 7 337 0.0 0.0 0.00 0.05 0.00 93 1079.1
20260508120914 7 337 0.0 0.0 0.00 0.05 0.00 93 1079.1
20260508114917 5 225 0.0 0.0 0.00 0.05 0.00 94 1078.6
20260508113916 5 225 0.0 0.0 0.00 0.05 0.00 94 1078.5
20260508112918 5 225 0.0 0.0 0.00 0.05 0.00 94 1078.5
20260508112819 5 225 0.0 0.0 0.00 0.05 0.00 94 1078.5
20260508111817 5 225 0.0 0.0 0.00 0.05 0.00 93 1078.3
20260508105814 4 225 0.0 0.0 0.00 0.05 0.00 94 1078.0
20260508104816 4 225 0.0 0.0 0.00 0.05 0.00 94 1078.0
20260508103716 4 225 0.0 0.0 0.00 0.05 0.00 94 1078.1
20260508103617 4 225 0.0 0.0 0.00 0.05 0.00 94 1078.2
20260508102616 4 225 0.0 0.0 0.00 0.05 0.00 93 1078.0
20260508102516 4 225 0.0 0.0 0.00 0.05 0.00 93 1078.0
20260508101614 3 225 0.0 0.0 0.00 0.05 0.00 94 1078.2
20260508100632 3 225 0.0 0.0 0.00 0.05 0.00 93 1078.0
20260508095631 3 225 0.0 0.0 0.00 0.05 0.00 94 1078.0
20260508092615 3 225 0.0 0.0 0.00 0.05 0.00 94 1078.2
20260508091615 3 225 0.0 0.0 0.00 0.05 0.00 94 1078.1
20260508090616 3 225 0.0 0.0 0.00 0.05 0.00 93 1078.2
20260508085615 3 225 0.0 0.0 0.00 0.05 0.00 92 1078.0
20260508083714 2 225 0.0 0.0 0.00 0.05 0.00 92 1078.0
20260508082715 2 225 0.0 0.0 0.00 0.05 0.00 92 1077.9
20260508081717 2 225 0.0 0.0 0.00 0.05 0.00 93 1077.8
20260508080732 2 225 0.0 0.0 0.00 0.05 0.00 92 1077.8
20260508075831 2 225 0.0 0.0 0.00 0.05 0.00 93 1077.8
20260508074817 2 225 0.0 0.0 0.00 0.05 0.00 93 1077.8
20260508073816 2 225 0.0 0.0 0.00 0.05 0.00 93 1077.8
20260508072817 2 225 0.0 0.0 0.00 0.05 0.00 93 1077.8
20260508071914 2 225 0.0 0.0 0.00 0.05 0.00 92 1078.0
20260508070930 2 225 0.0 0.0 0.00 0.05 0.00 92 1078.0
20260508070014 2 225 0.0 0.0 0.00 0.05 0.00 91 1077.9
20260508065016 3 225 0.0 0.0 0.00 0.05 0.00 91 1078.0
20260508064017 3 225 0.0 0.0 0.00 0.05 0.00 92 1078.3
20260508063116 3 225 0.0 0.0 0.00 0.05 0.00 92 1078.5
20260508062113 3 225 0.0 0.0 0.00 0.05 0.00 91 1078.6
20260508062015 3 225 0.0 0.0 0.00 0.05 0.00 92 1078.7
20260508060931 3 225 0.0 0.0 0.00 0.05 0.00 91 1078.6
20260508054115 3 225 0.0 0.0 0.00 0.05 0.00 90 1078.6
20260508053117 3 225 0.0 0.0 0.00 0.05 0.00 91 1078.5
20260508052117 3 225 0.0 0.0 0.00 0.05 0.00 91 1078.4
20260508051116 3 225 0.0 0.0 0.00 0.05 0.00 91 1078.5
20260508051018 3 225 0.0 0.0 0.00 0.05 0.00 91 1078.4
20260508050016 3 225 0.0 0.0 0.00 0.05 0.00 91 1078.6
20260508044917 4 225 0.0 0.0 0.00 0.05 0.00 90 1078.6
20260508042915 4 225 0.0 0.0 0.00 0.05 0.00 89 1078.4
20260508035126 4 225 0.0 0.0 0.00 0.05 0.05 86 1078.3
20260508035042 4 225 0.0 0.0 0.00 0.05 0.05 86 1078.4
20260508034026 5 225 0.0 0.0 0.00 0.05 0.05 83 1078.4
20260508033026 5 225 0.0 0.0 0.00 0.05 0.05 84 1078.4
20260508032943 5 225 0.0 0.0 0.00 0.05 0.05 83 1078.4
20260508031028 5 225 0.0 0.0 0.00 0.05 0.05 81 1078.5
20260508030027 5 180 0.0 0.0 0.00 0.05 0.05 79 1078.0
20260508025926 5 180 0.0 1.6 0.00 0.05 0.05 80 1078.1
20260508024943 5 225 0.0 0.0 0.00 0.05 0.05 80 1078.5
20260508024826 5 225 0.0 0.0 0.00 0.05 0.05 79 1078.6
20260508024728 6 225 0.0 0.0 0.00 0.05 0.05 80 1078.5
20260508023627 6 225 0.0 1.6 0.00 0.05 0.05 79 1078.5
20260508022725 6 225 0.0 0.0 0.00 0.05 0.05 76 1078.5
20260508021726 6 225 0.0 0.0 0.00 0.05 0.05 74 1078.5
20260508020743 6 225 0.0 0.0 0.00 0.05 0.05 74 1078.5
20260508015826 6 225 0.0 0.0 0.00 0.05 0.05 72 1078.2
20260508014830 6 225 0.0 0.0 0.00 0.05 0.05 69 1078.5
20260508013828 7 225 0.0 0.0 0.00 0.05 0.05 67 1078.4
20260508013728 7 225 0.0 0.0 0.00 0.05 0.05 66 1078.4
20260508012743 7 202 0.0 0.0 0.00 0.05 0.05 63 1078.5
20260508011729 8 202 0.0 0.0 0.00 0.05 0.05 60 1078.5
20260508005727 10 202 0.0 0.0 0.00 0.05 0.05 55 1078.4
20260508005628 10 202 0.0 0.0 0.00 0.05 0.05 55 1078.5
20260508004627 10 202 0.0 1.6 0.00 0.05 0.05 53 1078.5
20260508002628 11 202 0.0 1.6 0.00 0.05 0.05 51 1078.4
20260508001644 11 202 0.0 0.0 0.00 0.05 0.05 50 1078.3
20260508001542 11 202 0.0 1.6 0.00 0.05 0.05 50 1078.4
20260507235627 12 223 1.6 4.8 0.00 0.05 0.05 48 1078.3
20260507233725 13 247 1.6 3.2 0.00 0.05 0.05 49 1078.3
20260507232729 13 225 0.0 0.0 0.00 0.05 0.05 46 1078.2
20260507231744 15 221 0.0 1.6 0.00 0.05 0.05 43 1078.0
20260507225725 17 67 0.0 0.0 0.00 0.05 0.05 38 1078.4
20260507222825 16 62 0.0 4.8 0.00 0.05 0.05 43 1078.2
20260507220827 16 157 0.0 0.0 0.00 0.05 0.05 45 1078.4